date,greenstars,bench
15/02/2013,100,100
18/02/2013,100,100.179233
19/02/2013,100,100.4656627
20/02/2013,100,100.1166301
21/02/2013,99.98,99.91595774
22/02/2013,99.98,100.5685716
25/02/2013,99.95,100.225542
26/02/2013,100.14,100.3207327
27/02/2013,100.58,100.7443743
28/02/2013,100.8,101.1928856
01/03/2013,101.19,101.383267
04/03/2013,101.2,101.4330063
05/03/2013,101.44,101.9767083
06/03/2013,101.72,102.0418839
07/03/2013,101.71,101.8266328
08/03/2013,102.3,102.2794319
11/03/2013,102.37,102.3214531
12/03/2013,102.41,102.3411773
13/03/2013,102.57,102.4732437
14/03/2013,103,102.8025521
15/03/2013,102.77,102.6687706
18/03/2013,102.93,102.6919251
19/03/2013,102.72,102.7931188
20/03/2013,102.83,102.8497187
21/03/2013,102.6,102.667913
22/03/2013,102.52,102.6396131
25/03/2013,102.57,102.7965491
26/03/2013,102.9,102.679919
27/03/2013,102.83,103.1996089
28/03/2013,102.87,103.2330543
02/04/2013,103.32,103.4937569
03/04/2013,102.88,103.1481545
04/04/2013,103.07,103.1584454
05/04/2013,102.65,102.5298436
08/04/2013,103.05,102.7090766
09/04/2013,103.01,102.6936402
10/04/2013,103.82,103.229624
11/04/2013,104.01,103.4628842
12/04/2013,103.47,103.275933
15/04/2013,102.44,102.609598
16/04/2013,102.5,102.5624314
17/04/2013,102.12,102.1533686
18/04/2013,102.06,101.9381175
19/04/2013,102.53,102.2639956
22/04/2013,102.73,102.5838707
23/04/2013,103.8,103.4826084
24/04/2013,104.08,103.8204926
25/04/2013,104.2,104.0949163
26/04/2013,103.9,104.0288831
29/04/2013,104.1,104.2527099
30/04/2013,104.06,104.1918222
02/05/2013,104.28,104.5657245
03/05/2013,104.72,104.7723998
06/05/2013,104.64,104.8950329
07/05/2013,104.7,105.0433932
10/05/2013,105.06,105.4515985
13/05/2013,104.92,105.3555502
14/05/2013,105.02,105.5708013
15/05/2013,105.23,106.1307972
16/05/2013,105.03,106.0321762
17/05/2013,105.28,106.4541026
21/05/2013,105.44,106.4884056
22/05/2013,105.53,106.2920211
23/05/2013,104.71,104.9096117
24/05/2013,104.25,105.2106202
27/05/2013,104.42,105.1943263
28/05/2013,105.03,105.8821007
29/05/2013,104.33,104.7509605
30/05/2013,104.11,104.6840697
31/05/2013,103.7,104.270719
03/06/2013,103.45,104.0408891
04/06/2013,103.4,103.9199712
05/06/2013,102.47,103.1601605
06/06/2013,101.91,102.7296583
07/06/2013,102.43,103.177312
10/06/2013,102.44,103.205612
11/06/2013,101.54,102.5118345
12/06/2013,101.27,102.1439352
13/06/2013,101.43,102.4672407
14/06/2013,101.16,102.5264133
17/06/2013,101.56,102.8805914
18/06/2013,101.64,102.853149
19/06/2013,101.7,102.5135497
20/06/2013,100.41,101.1019827
21/06/2013,100.28,100.7786773
24/06/2013,99.32,99.96398189
25/06/2013,99.98,100.5342687
26/06/2013,100.82,101.4604487
27/06/2013,101.3,101.9518386
28/06/2013,101.08,101.8429267
01/07/2013,101.52,102.2056806
02/07/2013,101.67,102.2056806
03/07/2013,101.27,102.1233535
04/07/2013,102.07,102.9003156
05/07/2013,102.57,102.702216
08/07/2013,102.62,103.1155667
09/07/2013,103.04,103.7784715
10/07/2013,102.75,103.6892838
11/07/2013,102.71,103.9722832
12/07/2013,102.67,103.9817165
15/07/2013,102.81,104.1695252
16/07/2013,102.45,103.8316411
17/07/2013,102.45,104.1626647
18/07/2013,102.78,104.5108397
19/07/2013,102.82,104.4713913
22/07/2013,102.88,104.5717275
23/07/2013,102.79,104.3770582
24/07/2013,103.03,104.2895856
25/07/2013,102.8,104.1446556
26/07/2013,102.56,104.0554679
29/07/2013,102.43,103.8951015
30/07/2013,102.53,103.952559
31/07/2013,102.15,103.847935
01/08/2013,103.06,104.467961
02/08/2013,102.72,104.6892151
05/08/2013,102.98,104.7286636
06/08/2013,102.81,104.4045005
07/08/2013,102.59,104.2209797
08/08/2013,102.67,104.3521885
09/08/2013,102.79,104.5382821
12/08/2013,102.75,104.641191
13/08/2013,103.38,104.792124
14/08/2013,103.26,104.7501029
16/08/2013,102.59,103.8668016
19/08/2013,102.28,103.4706024
20/08/2013,101.79,103.2167604
21/08/2013,101.64,102.9371913
22/08/2013,102.43,103.3145239
23/08/2013,102.51,103.5349204
26/08/2013,102.18,103.5460689
27/08/2013,101.06,102.8462884
28/08/2013,101.07,102.7896885
29/08/2013,101.5,103.2999451
30/08/2013,101.22,103.0581092
02/09/2013,101.66,103.523772
03/09/2013,101.88,103.5306325
04/09/2013,102.28,103.6558384
05/09/2013,102.77,103.8453622
06/09/2013,102.53,104.0263104
09/09/2013,102.54,104.1455132
10/09/2013,103.35,104.5442851
11/09/2013,103.29,104.739812
12/09/2013,103.16,104.7192302
13/09/2013,103.26,104.9276207
16/09/2013,103.43,105.1608809
17/09/2013,103.45,105.138584
18/09/2013,103.36,105.6505557
19/09/2013,103.5,105.5853801
20/09/2013,103.28,105.3864229
23/09/2013,103.07,105.283514
24/09/2013,103.01,105.3915683
25/09/2013,102.7,105.3606957
26/09/2013,102.82,105.4738954
27/09/2013,102.47,105.2595019
30/09/2013,102.09,104.9284783
01/10/2013,102.64,105.3263927
02/10/2013,102.2,105.0485387
03/10/2013,101.87,104.7235181
04/10/2013,102.37,104.8701633
07/10/2013,102.01,104.6866424
08/10/2013,101.67,104.1446556
09/10/2013,101.67,104.1986828
10/10/2013,102.43,105.0193812
11/10/2013,102.67,105.2809413
14/10/2013,102.72,105.3812774
15/10/2013,102.85,105.5527923
16/10/2013,103.1,105.96014
17/10/2013,102.97,106.0381792
18/10/2013,103.25,106.3983603
21/10/2013,103.33,106.5149904
22/10/2013,103.25,106.7551111
23/10/2013,102.98,106.5012692
24/10/2013,103.18,106.6136114
25/10/2013,103.03,106.6384811
28/10/2013,103.02,106.6967961
29/10/2013,103.18,106.9129048
30/10/2013,103.07,106.8957533
31/10/2013,103.17,107.228492
04/11/2013,103.47,107.4557492
05/11/2013,103.57,107.2902374
06/11/2013,103.52,107.4291644
07/11/2013,103.21,107.4960552
08/11/2013,103.81,107.7164517
12/11/2013,103.66,107.3013858
13/11/2013,103.43,107.4557492
14/11/2013,103.6,107.7953485
15/11/2013,103.74,107.9625755
18/11/2013,103.74,108.0045966
19/11/2013,103.63,107.7095911
20/11/2013,103.67,107.7507547
21/11/2013,103.72,107.7970637
22/11/2013,103.65,107.8407999
25/11/2013,103.75,107.9934481
26/11/2013,103.38,107.7824849
27/11/2013,103.52,107.8819635
28/11/2013,103.63,107.9677209
29/11/2013,103.59,107.905118
02/12/2013,103.59,107.7559001
03/12/2013,102.8,107.268798
04/12/2013,102.86,106.9514956
05/12/2013,102.6,106.3383301
06/12/2013,102.98,106.672784
09/12/2013,103.09,106.7799808
10/12/2013,102.7,106.5269964
11/12/2013,102.14,106.0544731
12/12/2013,101.92,105.694292
13/12/2013,101.91,105.7045829
16/12/2013,102.36,106.1007821
17/12/2013,102.03,105.9498491
18/12/2013,102.85,106.4712541
19/12/2013,103.44,107.0355379
20/12/2013,103.73,107.4617522
23/12/2013,104.1,107.5440793
24/12/2013,104.22,107.6950123
27/12/2013,104.49,107.8167879
30/12/2013,104.43,107.7944909
31/12/2013,104.63,108.0371844
02/01/2014,104.48,107.9325604
03/01/2014,104.85,108.1735387
06/01/2014,104.66,108.0217481
07/01/2014,105.14,108.4642563
08/01/2014,105.25,108.5019896
09/01/2014,105.08,108.3973655
10/01/2014,105.23,108.5774561
13/01/2014,104.83,108.5277168
14/01/2014,105.18,108.6091863
15/01/2014,105.88,109.189764
16/01/2014,105.73,109.2052003
17/01/2014,106,109.4075878
20/01/2014,105.94,109.4144484
21/01/2014,105.93,109.5053513
22/01/2014,105.76,109.4701907
23/01/2014,104.86,108.8578828
24/01/2014,103.04,107.7979212
27/01/2014,102.78,107.3562706
28/01/2014,103.08,107.6504185
29/01/2014,102.61,107.5132066
30/01/2014,102.89,107.893112
31/01/2014,103.11,107.9359907
03/02/2014,101.82,107.1110044
04/02/2014,101.58,107.0261046
05/02/2014,101.64,107.0381106
06/02/2014,102.36,107.4986279
07/02/2014,102.75,108.0594813
10/02/2014,102.79,108.0972146
11/02/2014,103.33,108.6048985
12/02/2014,103.84,108.9830886
13/02/2014,103.75,108.9650796
14/02/2014,103.93,109.1794731
17/02/2014,104,109.2978183
18/02/2014,103.77,109.3792879
19/02/2014,103.4,109.2575123
20/02/2014,103.6,109.3304061
21/02/2014,103.73,109.4376029
24/02/2014,104.11,109.7909234
25/02/2014,104.28,109.8818263
26/02/2014,104.14,110.0010291
27/02/2014,104.36,110.1142289
28/02/2014,104.46,109.8981202
03/03/2014,103.48,109.2901002
04/03/2014,104.73,110.1451015
05/03/2014,104.74,110.1802621
06/03/2014,104.42,109.9864503
07/03/2014,104.02,109.5379391
10/03/2014,103.89,109.3389819
11/03/2014,103.65,109.2789517
12/03/2014,103.32,108.9307766
13/03/2014,102.6,108.4796926
14/03/2014,102.3,108.1666781
17/03/2014,103.01,108.5911773
18/03/2014,103.54,109.016534
19/03/2014,103.12,108.7463982
20/03/2014,103.47,108.9547887
21/03/2014,103.4,109.0148189
24/03/2014,102.57,108.7180982
25/03/2014,103.37,109.1863337
26/03/2014,103.52,109.3072516
27/03/2014,103.69,109.5293633
28/03/2014,104.15,109.7677689
31/03/2014,104.49,109.9701564
01/04/2014,104.9,110.2522983
02/04/2014,105.06,110.3543496
03/04/2014,105.23,110.5018524
04/04/2014,105.33,110.6039037
07/04/2014,104.56,109.9427141
08/04/2014,104.78,109.8518112
09/04/2014,105.24,110.0996501
10/04/2014,104.46,109.5576633
11/04/2014,103.78,108.9367796
14/04/2014,104.14,109.3509879
15/04/2014,104.2,109.2875274
16/04/2014,104.62,109.9495746
17/04/2014,104.67,109.9778746
22/04/2014,105.23,110.5704583
23/04/2014,105.23,110.3852223
24/04/2014,105.34,110.5138584
25/04/2014,104.9,110.1613954
28/04/2014,105.12,110.2034166
29/04/2014,105.52,110.6853732
30/04/2014,105.75,110.7677003
02/05/2014,105.77,110.9023395
05/05/2014,105.69,110.8543153
06/05/2014,106.02,110.5421583
07/05/2014,105.65,110.6210552
09/05/2014,106.14,110.6210552
12/05/2014,106.5,111.5969745
13/05/2014,106.95,111.956298
14/05/2014,107.05,112.0454857
15/05/2014,106.44,111.6698683
16/05/2014,106.71,111.7667741
19/05/2014,106.75,111.7230379
20/05/2014,106.53,111.5540958
21/05/2014,107.04,111.9288557
22/05/2014,107.13,112.0917947
23/05/2014,107.55,112.3936608
26/05/2014,107.74,112.6037665
27/05/2014,108.04,112.8850508
28/05/2014,108.35,112.9716658
30/05/2014,108.37,113.0745746
02/06/2014,108.22,113.2023532
03/06/2014,107.83,112.96309
04/06/2014,107.84,112.9673779
05/06/2014,108.25,113.2949712
06/06/2014,108.55,113.6551523
10/06/2014,108.77,114.0024698
11/06/2014,108.54,113.8566822
12/06/2014,108.7,113.7366218
13/06/2014,108.72,113.8086581
16/06/2014,108.4,113.6380008
17/06/2014,108.32,113.7126098
18/06/2014,108.76,113.8686883
19/06/2014,109.18,114.0813666
20/06/2014,109.23,114.1902785
23/06/2014,108.92,114.0736485
24/06/2014,108.8,113.8978458
25/06/2014,108.76,113.7186128
26/06/2014,108.9,113.8961306
27/06/2014,108.97,113.8403883
30/06/2014,108.85,113.7520582
01/07/2014,109.38,114.161121
02/07/2014,109.09,114.2142906
03/07/2014,109.48,114.6422201
04/07/2014,109.32,114.67052
07/07/2014,108.83,114.328348
08/07/2014,108.31,113.8352429
09/07/2014,108.45,113.8781216
10/07/2014,108.1,113.5728252
11/07/2014,108.07,113.6825947
15/07/2014,108.26,113.9527305
16/07/2014,108.97,114.559893
17/07/2014,108.41,114.1971391
18/07/2014,108.73,114.4278266
21/07/2014,108.35,114.2503087
22/07/2014,109.25,114.8763378
23/07/2014,109.42,115.0324163
24/07/2014,109.39,115.0718647
25/07/2014,109.07,114.9397983
28/07/2014,108.98,114.8909166
29/07/2014,109.05,115.0032588
30/07/2014,108.42,114.7862925
31/07/2014,106.93,113.9338639
01/08/2014,106.64,113.4493345
04/08/2014,107.02,113.5925494
05/08/2014,106.57,113.4922132
06/08/2014,106.54,113.3361347
07/08/2014,106.21,113.1063049
08/08/2014,106.19,113.0171172
11/08/2014,106.71,113.559104
12/08/2014,106.63,113.5556737
13/08/2014,107.38,113.8549671
14/08/2014,107.61,114.1516877
18/08/2014,108.15,114.6490807
19/08/2014,108.48,115.0804405
20/08/2014,108.43,115.1782039
21/08/2014,108.78,115.4474822
22/08/2014,108.73,115.4491973
25/08/2014,109.19,116.0606476
26/08/2014,109.76,116.3316411
27/08/2014,110.04,116.4920074
28/08/2014,110.11,116.3565107
29/08/2014,110.3,116.5143043
01/09/2014,110.39,116.649801
02/09/2014,109.8,116.5065862
03/09/2014,110,116.6806737
04/09/2014,110.61,117.320424
05/09/2014,111.02,117.3624451
08/09/2014,110.64,117.1737788
09/09/2014,109.93,116.835037
10/09/2014,109.96,116.7998765
11/09/2014,109.74,116.7141191
12/09/2014,109.18,116.4208288
15/09/2014,109.17,116.3796652
16/09/2014,109.45,116.4388378
17/09/2014,109.53,116.5700467
18/09/2014,109.95,116.9550974
19/09/2014,110.3,117.3109907
22/09/2014,110.07,117.0417124
23/09/2014,109.39,116.4739984
24/09/2014,109.95,116.9876852
25/09/2014,109.42,116.5966314
26/09/2014,109.9,116.9293702
29/09/2014,109.68,116.7947311
30/09/2014,110.03,116.9919731
01/10/2014,109.56,116.6789586
02/10/2014,108.71,115.7493482
03/10/2014,109.74,116.498868
06/10/2014,109.36,116.533171
07/10/2014,108.56,115.7339119
08/10/2014,109.12,115.7622119
09/10/2014,107.8,115.1773463
10/10/2014,106.97,114.5616081
13/10/2014,106.34,114.120815
14/10/2014,106.61,114.2511663
15/10/2014,105.4,113.2640985
16/10/2014,105.06,112.8558932
17/10/2014,106.21,113.7795005
20/10/2014,106.68,113.9270033
21/10/2014,107.95,115.0324163
22/10/2014,108.32,115.2330886
23/10/2014,108.68,115.6412939
24/10/2014,108.84,115.7227634
27/10/2014,108.58,115.4843578
28/10/2014,109.06,115.9388721
29/10/2014,108.95,115.931154
30/10/2014,109.89,116.5777648
31/10/2014,111.44,117.6746021
03/11/2014,111.41,117.4121844
04/11/2014,111.13,117.0374245
05/11/2014,111.68,117.7414929
06/11/2014,112.1,117.9678924
07/11/2014,112.08,118.0081984
10/11/2014,112.72,118.2414586
12/11/2014,112.79,117.9636046
13/11/2014,113.04,118.0930982
14/11/2014,113.06,118.165992
17/11/2014,113.29,118.3006312
18/11/2014,113.4,118.4687157
19/11/2014,113.17,118.3306463
20/11/2014,113.36,118.3846734
21/11/2014,114.69,119.5646954
24/11/2014,114.7,119.6187226
25/11/2014,114.74,119.6710346
26/11/2014,114.89,119.7327799
27/11/2014,115.14,119.9531765
28/11/2014,115.62,119.9317371
01/12/2014,115.11,119.5938529
02/12/2014,115.52,119.9488886
03/12/2014,115.97,120.411121
04/12/2014,115.16,119.70448
05/12/2014,115.81,120.5114572
08/12/2014,115.42,120.1838639
09/12/2014,114.5,119.2894141
10/12/2014,113.72,118.7551454
11/12/2014,113.93,118.888927
12/12/2014,112.77,117.7260565
15/12/2014,111.63,116.9713913
16/12/2014,111.74,116.8316068
17/12/2014,112.41,117.5656902
18/12/2014,114.06,118.6805365
19/12/2014,114.56,119.0518661
22/12/2014,115.09,119.305708
23/12/2014,115.09,119.4772228
24/12/2014,115.11,119.4875137
29/12/2014,115.85,119.8468373
30/12/2014,115.3,119.7319223
31/12/2014,115.39,119.7353526
02/01/2015,115.71,120.1495609
05/01/2015,114.51,119.9831915
06/01/2015,114.45,119.9566068
07/01/2015,115.23,116.4045349
08/01/2015,116.67,120.9942714
09/01/2015,116.14,120.6615327
12/01/2015,116.37,120.7198477
13/01/2015,116.95,120.9839805
14/01/2015,116.9,120.8707807
15/01/2015,118.6,121.6177278
16/01/2015,119.03,121.6177278
19/01/2015,119.05,122.0336512
20/01/2015,119.54,122.3672475
21/01/2015,119.17,122.4118414
22/01/2015,121.23,123.3500274
23/01/2015,122.51,124.2727772
26/01/2015,122.28,124.3834042
27/01/2015,121.12,123.5952936
28/01/2015,121.42,123.5481271
29/01/2015,121.04,123.6510359
30/01/2015,121.34,123.6776207
02/02/2015,121.38,123.9306051
03/02/2015,120.75,123.7427964
04/02/2015,121.09,123.6921995
05/02/2015,121,123.975199
06/02/2015,120.54,123.8740052
09/02/2015,119.73,123.6493208
10/02/2015,119.92,123.7908205
11/02/2015,119.97,124.0789654
12/02/2015,120.33,124.0558109
13/02/2015,120.93,124.1312774
16/02/2015,120.71,124.0472352
17/02/2015,120.05,123.9726262
18/02/2015,120.92,124.2573408
19/02/2015,121.02,124.184447
20/02/2015,121.11,124.4631586
23/02/2015,121.8,124.7324369
24/02/2015,122.82,125.092618
25/02/2015,122.76,125.2075329
26/02/2015,123.57,125.6997805
27/02/2015,123.67,125.6406078
02/03/2015,123.54,125.6380351
03/03/2015,122.97,125.2761389
04/03/2015,123.32,125.4845294
05/03/2015,124.33,125.8267014
06/03/2015,124.05,125.7074986
09/03/2015,124.4,125.8447105
10/03/2015,125.1,125.8978801
11/03/2015,126.69,126.620815
12/03/2015,127.2,127.013584
13/03/2015,127.48,127.1224959
16/03/2015,128,127.4895376
17/03/2015,127.32,127.2991561
18/03/2015,127.39,127.9552003
19/03/2015,128.11,128.1155667
20/03/2015,128.14,128.0606819
23/03/2015,127.27,127.5478526
24/03/2015,127.41,127.5581435
25/03/2015,126.43,126.7871844
26/03/2015,126.27,126.5899424
27/03/2015,126.33,126.7254391
30/03/2015,127.23,127.3017289
31/03/2015,127.53,127.3394621
01/04/2015,127.32,127.3626166
02/04/2015,126.84,127.0701839
07/04/2015,127.77,127.528986
08/04/2015,127.89,127.9114641
09/04/2015,128.63,128.3959934
10/04/2015,129.28,128.8582259
13/04/2015,129.52,128.9268318
14/04/2015,128.99,128.7381655
15/04/2015,129.6,129.2664311
16/04/2015,128.84,128.9165409
17/04/2015,127.81,128.1936059
20/04/2015,128.54,128.4628842
21/04/2015,128.65,128.5169114
22/04/2015,128.51,128.5409234
23/04/2015,128.17,128.3779844
24/04/2015,128.35,128.3796995
27/04/2015,128.48,128.3136663
28/04/2015,127.79,127.8677278
29/04/2015,125.93,126.6268181
30/04/2015,124.53,125.8721529
04/05/2015,124.95,126.0685373
05/05/2015,122.81,125.1603664
06/05/2015,121.67,124.2830681
07/05/2015,122.26,124.6346734
11/05/2015,123.56,125.5659989
12/05/2015,122.43,125.1552209
13/05/2015,122.22,124.5017495
15/05/2015,122.8,125.0257272
18/05/2015,123.28,125.1929542
19/05/2015,124.23,126.006792
20/05/2015,124.42,126.0788282
21/05/2015,124.44,126.24434
22/05/2015,124.8,126.4390093
26/05/2015,125.16,126.5547818
27/05/2015,125.54,127.0556051
28/05/2015,125.17,126.8386389
29/05/2015,124.7,126.516191
01/06/2015,124.43,126.5299122
02/06/2015,122.35,125.3533205
03/06/2015,121.24,124.5849341
04/06/2015,120.73,124.2564833
05/06/2015,120.32,124.3027923
08/06/2015,119.45,123.7290752
09/06/2015,118.64,123.4640848
10/06/2015,118.82,123.6398875
11/06/2015,120.12,124.2341863
12/06/2015,120.05,123.9340354
15/06/2015,120,123.6355996
16/06/2015,120.64,123.9563323
17/06/2015,120.4,123.9443263
18/06/2015,120.93,123.7968235
19/06/2015,121.4,124.132135
22/06/2015,121.16,124.2015985
23/06/2015,121.71,124.8996638
24/06/2015,121.73,124.7170005
25/06/2015,121.5,124.5206161
26/06/2015,120.95,124.4271405
29/06/2015,121.07,123.761663
30/06/2015,120.86,123.7976811
01/07/2015,121.12,124.2479075
02/07/2015,121.15,123.7976811
03/07/2015,121.46,123.7976811
06/07/2015,121.7,123.7976811
07/07/2015,122.08,124.7324369
08/07/2015,121.74,123.8808658
09/07/2015,121.83,123.9649081
10/07/2015,120.69,123.7462267
13/07/2015,121.83,124.7993277
15/07/2015,123.64,125.4725233
16/07/2015,124.24,126.0865464
17/07/2015,124.44,126.38927
20/07/2015,124.66,126.4021336
21/07/2015,124.08,126.0016465
22/07/2015,124.07,126.0462404
23/07/2015,123.75,125.7049259
24/07/2015,123.7,125.4828142
27/07/2015,122.87,124.7187157
28/07/2015,123.31,125.2769964
29/07/2015,123.65,125.5608535
30/07/2015,124.35,126.065107
31/07/2015,125.01,125.9090285
03/08/2015,125.38,126.2143249
04/08/2015,125.13,126.139716
05/08/2015,125.12,126.3146611
06/08/2015,124.73,125.9707739
07/08/2015,124.35,125.9484769
10/08/2015,124.54,126.1345705
11/08/2015,124.71,125.7855379
12/08/2015,123.77,125.1363543
13/08/2015,123.87,125.1740875
14/08/2015,123.67,125.2512692
17/08/2015,124.47,125.6663351
18/08/2015,124.63,125.5848655
19/08/2015,123.87,125.1595088
20/08/2015,122.82,124.0952593
21/08/2015,120.92,122.6090834
24/08/2015,117.09,120.3210757
25/08/2015,117.78,120.2113063
26/08/2015,117.4,120.9676866
27/08/2015,119.1,122.4255626
28/08/2015,119.72,122.5824986
31/08/2015,118.57,122.2506175
01/09/2015,117.2,120.8982231
02/09/2015,117.43,121.3484495
03/09/2015,119.29,122.1802964
04/09/2015,118.18,121.643455
07/09/2015,118.38,121.5422613
08/09/2015,118.54,122.0799602
09/09/2015,119.22,122.1691479
10/09/2015,118.3,121.8552758
11/09/2015,118.22,121.7712335
14/09/2015,118.21,121.5525521
15/09/2015,117.75,121.6674671
16/09/2015,117.83,122.0002058
17/09/2015,118.07,122.0396542
18/09/2015,118.48,121.655461
21/09/2015,119.03,122.0782451
22/09/2015,118.98,121.9075878
23/09/2015,118.82,121.7172064
24/09/2015,118.16,121.0971803
25/09/2015,118.9,121.498525
28/09/2015,118.13,120.6924053
29/09/2015,117.6,120.5243208
30/09/2015,118.33,121.5079583
01/10/2015,118.49,121.6383095
02/10/2015,118.57,122.0842481
05/10/2015,119.53,122.9255283
06/10/2015,119.38,122.7943194
07/10/2015,118.58,123.1682217
08/10/2015,118.66,123.2308246
09/10/2015,118.43,123.1767975
12/10/2015,118.87,123.1948065
13/10/2015,119.04,122.8903677
14/10/2015,118.32,122.6725439
15/10/2015,118.56,123.3491699
16/10/2015,119.08,123.61073
19/10/2015,119.56,123.7204995
20/10/2015,118.9,123.3783274
21/10/2015,119.78,123.3809001
22/10/2015,121.6,124.7658823
23/10/2015,122.66,125.642323
26/10/2015,122.74,125.5968716
27/10/2015,123.15,125.5334111
28/10/2015,123.79,125.8764407
29/10/2015,122.91,125.7949712
30/10/2015,122.48,125.4527991
02/11/2015,121.86,125.5754322
03/11/2015,121.77,125.8730104
04/11/2015,122.01,126.0736828
05/11/2015,122.29,125.9433315
06/11/2015,122.07,125.9690587
09/11/2015,121.8,125.5368414
10/11/2015,122.92,125.9184619
12/11/2015,122.5,125.2324026
13/11/2015,122.73,125.0154363
16/11/2015,123.19,125.4905324
17/11/2015,124.46,126.018798
18/11/2015,124.73,126.5170486
19/11/2015,125.02,126.4921789
20/11/2015,125.5,126.8274904
23/11/2015,124.97,126.8583631
24/11/2015,124.52,126.7743208
25/11/2015,125.43,127.0890505
26/11/2015,125.89,127.2254048
27/11/2015,126.58,127.285435
30/11/2015,126.27,127.2365532
01/12/2015,126.26,127.6293222
02/12/2015,126.27,127.4175014
03/12/2015,122.48,125.2221117
04/12/2015,122.32,125.497393
07/12/2015,123.64,125.7375137
08/12/2015,123.09,125.3078691
09/12/2015,122.16,124.7856065
10/12/2015,122.59,124.873079
11/12/2015,121.83,124.6166644
14/12/2015,120.49,123.7573751
15/12/2015,121.06,124.2985044
16/12/2015,120.72,124.7109975
17/12/2015,122.26,125.0162939
18/12/2015,121.58,124.6303856
21/12/2015,121.08,124.4734495
22/12/2015,120.56,124.3936951
23/12/2015,121.37,125.150933
24/12/2015,121.04,124.9519759
28/12/2015,121.45,124.8825123
29/12/2015,122.1,125.3661841
30/12/2015,122.28,125.0720362
31/12/2015,122.37,125.0017151
04/01/2016,121.13,124.5900796
05/01/2016,122.07,124.953691
06/01/2016,121.95,124.5386251
07/01/2016,120.26,123.2814215
08/01/2016,119.89,122.7342892
11/01/2016,119.51,122.7625892
12/01/2016,118.98,123.1116218
13/01/2016,119.45,122.7042741
14/01/2016,118.91,122.7514407
15/01/2016,118.49,121.8252607
18/01/2016,118.4,121.9315999
19/01/2016,118.48,121.9873422
20/01/2016,117.77,121.4076221
21/01/2016,118.68,121.8261183
22/01/2016,119.02,122.7420074
25/01/2016,119.05,122.3861142
26/01/2016,119.17,122.8337678
27/01/2016,119.34,122.6648257
28/01/2016,119.23,122.4890231
29/01/2016,120.8,124.1475714
01/02/2016,120.26,123.9366081
02/02/2016,120.63,123.3234426
03/02/2016,119.91,122.9075192
04/02/2016,119.25,122.6382409
05/02/2016,119.03,122.0996844
08/02/2016,118.42,121.70177
09/02/2016,118.09,120.9050837
10/02/2016,118.21,121.2824163
11/02/2016,117.29,120.4617179
12/02/2016,117.63,120.8810716
15/02/2016,118.69,121.7189215
16/02/2016,118.73,122.1537116
17/02/2016,119.2,122.7668771
18/02/2016,119.83,123.1244855
19/02/2016,119.8,123.020719
22/02/2016,120.71,123.9391808
23/02/2016,120.27,123.5189695
24/02/2016,119.88,123.5455543
25/02/2016,120.44,124.172441
26/02/2016,121.42,124.4468647
29/02/2016,122.28,124.6552552
01/03/2016,122.3,125.2950055
02/03/2016,122.48,125.6740532
03/03/2016,122.46,125.6037322
04/03/2016,122.2,125.4682355
07/03/2016,122.29,125.5874383
08/03/2016,122.56,125.3696144
09/03/2016,121.7,125.2109632
10/03/2016,120.46,124.4734495
11/03/2016,121.5,125.1577936
14/03/2016,121.84,125.5659989
15/03/2016,121.09,125.271851
16/03/2016,121.33,125.6431806
17/03/2016,122.12,125.4931051
18/03/2016,122.42,125.8815862
21/03/2016,122.14,125.867865
22/03/2016,122.31,126.0265162
23/03/2016,122.59,125.9965011
24/03/2016,122.37,125.6903471
29/03/2016,122.57,126.2306188
30/03/2016,123.07,126.0059344
31/03/2016,123.03,125.740944
01/04/2016,122.62,125.8489984